Location: Gazon
(48.1318°N, 1.2708°W)
Time: 01:52:57
(UTC+00:00)

SJ 16-02 - Pass Details

Date: 18 September 2020
Orbit: 606 x 616 km, 75.0° (Epoch: 29 October)

Event Time Altitude Azimuth Distance (km) Brightness Sun altitude
Rises 19:36:27 0° 236° (SW) 2,857 5.3 -14.9°
Reaches altitude 10° 19:39:04 10° 251° (WSW) 1,957 4.7 -15.3°
Maximum altitude 19:42:32 23° 304° (NW) 1,316 4.0 -15.8°
Drops below altitude 10° 19:46:02 10° 357° (N) 1,967 4.2 -16.4°
Sets 19:48:41 0° 12° (NNE) 2,876 4.9 -16.8°
